Wetbulb
54.17 53.85 53.74 53.74 53.82 53.85 54.58 55.55 55.73 56.54 56.48 57.19 58.54 58.97 60.04 60.80 60.50 60.77 61.06 60.50 60.32 60.34
51.98 52.40 51.95 52.12 52.72 52.85 53.10 55.52 54.63 54.52 53.99 54.44 55.32 56.30 56.04 56.88 57.69 58.84 59.56 59.38 58.69 58.29
51.56 51.77 51.44 50.88 50.72 50.69 51.16 51.58 52.12 52.51 52.73 52.94 52.84 52.63 51.45 51.13 52.58 53.65 54.60 56.94 56.77 57.09
50.39 50.32 50.07 49.36 49.24 49.20 49.03 49.71 50.40 51.06 51.35 51.66 51.62 51.54 50.38 50.56 51.52 50.86 50.74 51.70 53.53 54.14
49.60 48.79 48.15 48.20 48.18 48.19 47.90 48.72 49.76 50.39 50.51 50.88 50.80 49.89 49.30 49.35 49.41 49.18 49.04 49.17 49.79 50.58
47.66 47.30 46.91 47.12 46.86 47.30 47.95 47.97 47.73 48.18 48.39 48.66 48.34 48.40 47.88 47.75 47.55 47.14 47.30 47.85 47.76 47.88
46.66 46.52 45.74 45.68 45.92 46.63 46.63 45.37 45.33 45.77 46.67 46.75 46.14 46.79 47.31 46.43 45.14 44.93 45.68 45.84 46.56 46.98
46.61 45.78 44.85 44.64 44.21 44.10 43.60 43.27 43.63 43.62 43.80 43.95 44.45 45.52 44.46 44.03 43.58 42.85 42.46 43.84 44.99 45.19
44.49 44.03 42.89 42.42 41.65 40.99 40.61 40.45 40.63 40.66 40.99 40.67 42.58 43.42 44.38 44.50 41.34 41.36 40.93 40.22 40.92 41.59
42.58 41.87 40.66 40.58 39.75 38.60 37.77 37.87 37.47 37.58 38.05 37.84 38.36 40.95 41.47 42.10 39.64 39.13 39.05 38.94 39.64 40.31
39.95 38.96 38.48 37.72 36.95 36.25 35.86 35.25 34.56 34.91 35.74 36.15 37.66 40.91 40.72 41.14 40.38 39.83 39.62 39.82 39.97 40.14
38.17 36.57 35.95 35.10 34.39 33.46 32.76 33.06 33.52 35.01 37.26 36.65 36.92 39.78 40.01 40.30 39.38 38.74 38.77 39.95 40.63 40.99
36.03 34.78 33.13 32.40 31.50 31.51 31.79 32.94 35.19 36.02 37.75 38.40 38.28 39.06 38.94 38.79 38.58 37.78 38.10 39.19 39.98 41.48
33.41 31.88 31.39 30.63 30.59 32.33 34.23 35.49 35.55 35.70 36.40 36.67 36.21 36.52 38.80 39.26 38.26 37.55 37.39 38.03 38.74 40.26
MSLP
1013.91 1014.24 1014.59 1014.68 1014.58 1014.53 1014.46 1014.15 1013.80 1013.25 1012.98 1012.87 1012.53 1012.38 1012.12 1011.96 1011.65 1011.53 1011.40 1011.35 1011.34 1010.99
1014.14 1014.36 1014.61 1014.58 1014.53 1014.62 1014.54 1014.42 1013.93 1013.76 1013.36 1012.94 1012.79 1012.70 1012.56 1012.21 1012.00 1011.77 1011.85 1011.57 1011.13 1011.13
1013.98 1014.11 1014.27 1014.35 1014.53 1014.56 1014.43 1014.23 1014.21 1014.08 1013.72 1013.41 1013.07 1013.02 1012.82 1012.50 1012.33 1012.00 1011.98 1011.77 1011.37 1010.91
1013.79 1013.92 1014.09 1014.17 1014.25 1014.16 1014.24 1014.35 1014.27 1014.09 1013.85 1013.63 1013.38 1013.28 1012.96 1012.62 1012.20 1011.93 1011.64 1011.33 1011.23 1010.94
1014.02 1014.13 1014.30 1014.17 1014.13 1014.40 1014.51 1014.34 1014.30 1014.08 1013.84 1013.70 1013.45 1013.19 1012.86 1012.62 1012.27 1012.08 1011.72 1011.34 1011.10 1010.92
1014.38 1014.32 1014.33 1014.35 1014.36 1014.28 1014.33 1014.35 1014.32 1014.12 1013.94 1013.76 1013.53 1013.22 1012.85 1012.57 1012.47 1012.28 1011.98 1011.64 1011.44 1011.24
1014.28 1014.38 1014.48 1014.45 1014.53 1014.63 1014.77 1014.78 1014.56 1014.37 1014.14 1013.84 1013.47 1013.09 1012.59 1012.30 1012.20 1012.00 1011.64 1011.43 1011.23 1010.86
1014.47 1014.69 1014.95 1015.06 1015.16 1015.22 1015.26 1015.06 1014.74 1014.37 1013.99 1013.61 1013.21 1012.61 1012.26 1012.14 1011.91 1011.72 1011.40 1011.02 1010.65 1010.31
1015.48 1015.61 1015.65 1015.62 1015.52 1015.43 1015.23 1014.90 1014.49 1013.99 1013.49 1013.03 1012.61 1012.22 1012.05 1011.80 1011.55 1011.27 1011.00 1010.61 1010.23 1009.91
1016.16 1016.10 1016.07 1015.89 1015.55 1015.19 1014.84 1014.42 1014.07 1013.55 1013.07 1012.66 1012.18 1011.88 1011.62 1011.43 1011.12 1010.86 1010.52 1010.20 1009.77 1009.29
1016.59 1016.49 1016.22 1015.85 1015.46 1015.14 1014.76 1014.37 1013.89 1013.26 1012.75 1012.32 1011.71 1011.34 1011.19 1011.00 1010.72 1010.34 1009.93 1009.62 1009.25 1008.80
1017.14 1016.87 1016.43 1015.95 1015.58 1015.11 1014.66 1014.04 1013.44 1012.80 1012.12 1011.85 1011.17 1010.98 1010.70 1010.50 1010.14 1009.67 1009.24 1008.82 1008.39 1008.00
1017.29 1016.97 1016.50 1016.00 1015.50 1014.89 1014.48 1013.84 1013.05 1012.35 1011.87 1011.35 1010.64 1010.46 1010.23 1010.03 1009.68 1009.12 1008.63 1008.17 1007.69 1007.32
1017.17 1016.82 1016.25 1015.79 1015.35 1014.75 1014.06 1013.37 1012.69 1011.98 1011.39 1010.97 1010.74 1010.13 1009.85 1009.54 1009.18 1008.60 1008.06 1007.55 1007.00 1006.55
Wind_Speed
8 5 5 5 4 4 4 4 7 6 6 7 7 7 7 5 4 5 4 6 6 3
7 7 6 5 4 2 3 4 7 8 7 8 7 7 7 5 6 6 6 6 5 4
7 6 5 4 4 3 3 3 4 5 6 7 7 7 6 4 5 4 3 4 5 3
6 6 5 4 3 2 2 4 5 6 5 5 6 6 6 6 7 6 5 5 4 5
4 4 4 2 1 3 3 3 4 5 5 5 5 6 6 6 7 7 7 6 5 5
3 2 1 3 4 4 5 5 5 5 5 5 5 6 4 4 5 5 6 5 6 6
3 0 3 4 6 6 6 5 6 5 5 4 5 7 5 4 4 6 6 6 6 7
6 7 6 6 6 6 5 4 4 5 5 6 6 7 6 6 8 7 7 8 9 9
7 5 5 5 4 3 4 5 5 6 7 8 7 11 13 12 7 6 7 9 10 10
7 6 6 5 5 6 7 6 7 9 9 10 10 14 13 15 7 6 9 10 10 10
8 8 7 8 7 6 6 9 9 10 9 9 8 12 11 14 9 8 10 10 10 11
7 8 9 9 10 9 8 9 9 9 10 9 10 13 13 11 8 9 10 10 10 10
6 8 10 9 9 7 8 9 8 10 9 11 12 13 14 12 7 9 8 9 10 14
8 8 8 7 7 9 10 9 9 10 9 10 9 11 13 13 8 8 8 8 8 8
Wind_Direction
81 79 70 58 50 36 21 355 348 360 5 2 4 1 2 353 336 324 303 300 282 300
109 104 109 92 78 59 8 343 356 350 350 351 353 355 354 358 352 348 323 308 299 279
122 121 123 111 82 48 343 333 327 323 329 326 333 334 344 337 319 327 298 298 321 314
136 125 113 93 73 44 337 346 341 329 323 320 318 319 324 317 309 317 309 319 328 318
105 93 88 95 73 37 9 8 4 4 11 360 354 340 335 321 321 319 319 316 321 302
93 101 96 14 15 35 46 39 26 25 21 6 350 338 356 25 359 344 330 335 323 306
201 104 28 42 58 53 37 23 9 355 336 322 317 312 275 294 288 273 278 273 269 274
11 33 45 47 38 26 10 339 312 293 287 279 288 289 287 276 275 257 260 254 263 269
48 44 36 23 2 338 308 288 286 300 301 298 286 292 286 291 287 261 266 275 274 270
22 15 3 338 330 332 325 319 314 308 303 297 290 294 293 294 290 275 272 273 274 278
6 351 337 328 325 318 316 310 303 300 293 285 287 300 314 305 294 282 279 276 271 270
339 327 326 320 317 313 308 306 298 292 298 303 297 300 293 298 295 289 284 280 278 277
319 317 313 308 308 304 299 290 295 299 297 293 302 311 304 297 290 287 285 279 273 271
319 311 304 305 304 303 308 300 305 309 310 305 290 292 292 297 295 291 294 290 288 280